QPF
0.04 0.03 0.05 0.06 0.05 0.06 0.07 0.06 0.06 0.08 0.07 0.06 0.06 0.07 0.08 0.08 0.09 0.11 0.12 0.10 0.09 0.08 0.10 0.14 0.16 0.16 0.13 0.08 0.05 0.04 0.03 0.03 0.04 0.04 0.04 0.04 0.03 0.04 0.05 0.08 0.09 0.05 0.05
0.02 0.02 0.03 0.04 0.04 0.04 0.05 0.06 0.07 0.07 0.08 0.07 0.06 0.09 0.12 0.14 0.13 0.13 0.13 0.09 0.08 0.09 0.12 0.13 0.10 0.11 0.08 0.05 0.05 0.04 0.04 0.03 0.03 0.04 0.03 0.03 0.03 0.04 0.07 0.09 0.09 0.05 0.04
0.01 0.01 0.01 0.03 0.04 0.06 0.06 0.05 0.05 0.06 0.06 0.06 0.07 0.08 0.11 0.12 0.11 0.10 0.09 0.07 0.08 0.09 0.09 0.07 0.05 0.04 0.04 0.03 0.05 0.05 0.04 0.03 0.04 0.04 0.07 0.04 0.01 0.03 0.04 0.05 0.04 0.03 0.03
0.01 0.01 0.01 0.02 0.03 0.04 0.05 0.06 0.05 0.04 0.04 0.05 0.07 0.08 0.09 0.09 0.07 0.06 0.06 0.06 0.06 0.06 0.05 0.05 0.04 0.03 0.03 0.02 0.03 0.03 0.03 0.04 0.05 0.07 0.11 0.06 0.02 0.02 0.03 0.03 0.02 0.02 0.01
0.01 0.01 0.01 0.02 0.02 0.02 0.03 0.04 0.05 0.03 0.03 0.03 0.05 0.06 0.08 0.07 0.05 0.04 0.05 0.05 0.04 0.03 0.03 0.04 0.03 0.03 0.02 0.02 0.02 0.02 0.03 0.04 0.05 0.07 0.08 0.07 0.05 0.03 0.03 0.02 0.03 0.02 0.01
0.00 0.00 0.00 0.01 0.01 0.02 0.02 0.03 0.04 0.04 0.04 0.03 0.03 0.04 0.04 0.04 0.04 0.03 0.04 0.03 0.03 0.02 0.02 0.03 0.03 0.03 0.02 0.02 0.01 0.02 0.03 0.04 0.06 0.03 0.04 0.05 0.03 0.02 0.02 0.02 0.01 0.01 0.01
0.00 0.00 0.00 0.00 0.01 0.01 0.02 0.03 0.02 0.02 0.04 0.03 0.03 0.03 0.03 0.03 0.02 0.02 0.03 0.03 0.02 0.01 0.01 0.02 0.03 0.02 0.02 0.02 0.02 0.03 0.03 0.04 0.05 0.03 0.05 0.05 0.03 0.01 0.01 0.01 0.01 0.01 0.01
0.00 0.00 0.00 0.00 0.00 0.01 0.01 0.01 0.01 0.01 0.02 0.02 0.01 0.02 0.03 0.02 0.02 0.02 0.02 0.02 0.02 0.01 0.01 0.01 0.01 0.01 0.02 0.01 0.01 0.01 0.01 0.02 0.02 0.03 0.03 0.03 0.02 0.01 0.01 0.01 0.01 0.01 0.02
0.00 0.00 0.00 0.01 0.01 0.01 0.01 0.01 0.01 0.01 0.01 0.01 0.01 0.01 0.02 0.02 0.02 0.01 0.01 0.01 0.01 0.01 0.01 0.01 0.01 0.00 0.01 0.01 0.01 0.01 0.01 0.01 0.02 0.04 0.03 0.03 0.01 0.01 0.01 0.01 0.01 0.01 0.02
0.00 0.00 0.01 0.01 0.03 0.03 0.02 0.01 0.01 0.02 0.02 0.01 0.01 0.01 0.02 0.03 0.03 0.02 0.01 0.01 0.01 0.01 0.01 0.01 0.00 0.00 0.00 0.00 0.00 0.00 0.01 0.01 0.04 0.02 0.03 0.03 0.02 0.02 0.02 0.01 0.01 0.01 0.01
0.00 0.00 0.01 0.02 0.03 0.04 0.04 0.02 0.02 0.02 0.02 0.03 0.02 0.01 0.05 0.08 0.10 0.08 0.03 0.01 0.01 0.01 0.01 0.01 0.00 0.00 0.00 0.00 0.00 0.00 0.00 0.01 0.03 0.03 0.03 0.02 0.01 0.02 0.02 0.02 0.02 0.01 0.01
0.01 0.01 0.01 0.01 0.01 0.01 0.03 0.03 0.04 0.04 0.04 0.06 0.05 0.05 0.08 0.07 0.08 0.05 0.03 0.01 0.01 0.01 0.02 0.02 0.02 0.02 0.03 0.01 0.01 0.01 0.01 0.01 0.01 0.02 0.03 0.02 0.01 0.01 0.01 0.01 0.01 0.01 0.01
0.01 0.01 0.03 0.02 0.01 0.00 0.02 0.03 0.04 0.05 0.05 0.04 0.03 0.05 0.06 0.03 0.03 0.03 0.04 0.04 0.04 0.03 0.04 0.05 0.03 0.04 0.05 0.03 0.02 0.01 0.02 0.02 0.01 0.01 0.02 0.01 0.01 0.01 0.01 0.01 0.01 0.00 0.00
0.00 0.00 0.01 0.01 0.00 0.01 0.01 0.02 0.03 0.04 0.05 0.05 0.05 0.03 0.04 0.05 0.05 0.05 0.08 0.09 0.09 0.06 0.08 0.07 0.05 0.04 0.03 0.02 0.02 0.02 0.03 0.02 0.00 0.01 0.01 0.00 0.00 0.01 0.01 0.01 0.01 0.01 0.01
0.00 0.01 0.00 0.01 0.01 0.02 0.02 0.03 0.02 0.04 0.05 0.04 0.05 0.05 0.05 0.06 0.07 0.07 0.08 0.10 0.07 0.06 0.07 0.08 0.06 0.06 0.05 0.04 0.03 0.02 0.03 0.02 0.00 0.01 0.02 0.01 0.01 0.01 0.01 0.01 0.02 0.02 0.02
0.00 0.00 0.01 0.01 0.01 0.01 0.02 0.03 0.03 0.03 0.04 0.03 0.04 0.04 0.05 0.08 0.09 0.09 0.08 0.08 0.06 0.06 0.07 0.06 0.04 0.06 0.06 0.04 0.03 0.02 0.02 0.02 0.01 0.01 0.03 0.03 0.01 0.01 0.01 0.02 0.04 0.04 0.04
0.00 0.01 0.01 0.01 0.01 0.01 0.02 0.03 0.03 0.02 0.02 0.03 0.03 0.03 0.04 0.06 0.09 0.10 0.11 0.09 0.07 0.07 0.08 0.05 0.05 0.04 0.04 0.04 0.03 0.01 0.01 0.01 0.03 0.04 0.03 0.03 0.03 0.01 0.01 0.02 0.03 0.04 0.05
0.00 0.01 0.00 0.00 0.01 0.01 0.02 0.02 0.02 0.02 0.03 0.04 0.03 0.03 0.03 0.06 0.07 0.09 0.11 0.09 0.11 0.08 0.07 0.09 0.07 0.06 0.06 0.05 0.03 0.02 0.02 0.02 0.02 0.03 0.04 0.04 0.05 0.04 0.02 0.02 0.03 0.04 0.06
0.00 0.00 0.00 0.01 0.01 0.01 0.02 0.03 0.03 0.03 0.04 0.05 0.05 0.06 0.07 0.06 0.05 0.08 0.11 0.12 0.11 0.09 0.07 0.06 0.10 0.11 0.14 0.11 0.05 0.03 0.02 0.01 0.02 0.02 0.03 0.04 0.04 0.04 0.03 0.04 0.03 0.04 0.06
0.00 0.00 0.01 0.03 0.03 0.03 0.04 0.05 0.05 0.04 0.04 0.04 0.06 0.08 0.06 0.06 0.06 0.08 0.08 0.10 0.09 0.11 0.10 0.10 0.13 0.14 0.14 0.12 0.06 0.07 0.07 0.03 0.02 0.02 0.03 0.03 0.03 0.03 0.04 0.07 0.12 0.10 0.09
0.00 0.01 0.02 0.04 0.02 0.03 0.04 0.05 0.06 0.06 0.07 0.07 0.08 0.07 0.06 0.05 0.07 0.08 0.05 0.09 0.08 0.08 0.09 0.10 0.13 0.15 0.14 0.13 0.12 0.10 0.08 0.06 0.06 0.05 0.05 0.05 0.06 0.07 0.07 0.09 0.12 0.12 0.11
0.03 0.02 0.02 0.01 0.01 0.02 0.05 0.08 0.10 0.08 0.06 0.07 0.06 0.07 0.05 0.04 0.06 0.06 0.08 0.07 0.07 0.08 0.09 0.10 0.14 0.14 0.14 0.17 0.15 0.16 0.17 0.15 0.11 0.07 0.08 0.10 0.09 0.08 0.08 0.07 0.09 0.12 0.13
0.01 0.02 0.01 0.01 0.01 0.02 0.06 0.09 0.14 0.11 0.07 0.07 0.07 0.05 0.04 0.03 0.05 0.07 0.10 0.08 0.07 0.07 0.10 0.13 0.13 0.14 0.14 0.15 0.15 0.16 0.19 0.18 0.16 0.12 0.14 0.15 0.10 0.08 0.08 0.08 0.09 0.10 0.11
0.00 0.01 0.01 0.01 0.02 0.04 0.04 0.06 0.07 0.08 0.10 0.10 0.08 0.06 0.05 0.04 0.04 0.05 0.05 0.06 0.07 0.08 0.10 0.09 0.11 0.15 0.15 0.14 0.16 0.15 0.15 0.17 0.18 0.18 0.13 0.10 0.09 0.08 0.09 0.10 0.11 0.08 0.10
0.00 0.01 0.01 0.02 0.04 0.04 0.03 0.03 0.06 0.08 0.10 0.10 0.10 0.09 0.08 0.07 0.04 0.04 0.04 0.05 0.07 0.09 0.11 0.11 0.16 0.16 0.15 0.16 0.17 0.18 0.18 0.18 0.18 0.19 0.16 0.13 0.12 0.10 0.11 0.10 0.07 0.05 0.07
0.00 0.00 0.01 0.02 0.03 0.03 0.02 0.04 0.07 0.07 0.09 0.10 0.11 0.09 0.09 0.08 0.06 0.05 0.05 0.07 0.08 0.09 0.10 0.11 0.12 0.11 0.15 0.18 0.20 0.21 0.19 0.17 0.18 0.19 0.16 0.17 0.17 0.12 0.09 0.07 0.06 0.06 0.08
MSLP
1012.01 1012.12 1012.31 1012.56 1012.82 1013.04 1013.15 1013.14 1013.01 1012.78 1012.51 1012.26 1012.08 1012.00 1012.00 1012.06 1012.14 1012.20 1012.22 1012.19 1012.14 1012.10 1012.10 1012.15 1012.28 1012.45 1012.64 1012.83 1013.00 1013.13 1013.25 1013.38 1013.55 1013.77 1014.04 1014.36 1014.68 1014.99 1015.24 1015.44 1015.57 1015.69 1015.80
1012.14 1012.37 1012.68 1013.02 1013.33 1013.55 1013.64 1013.57 1013.38 1013.10 1012.81 1012.57 1012.44 1012.42 1012.50 1012.63 1012.76 1012.85 1012.87 1012.82 1012.75 1012.68 1012.66 1012.71 1012.83 1012.99 1013.18 1013.36 1013.50 1013.61 1013.70 1013.81 1013.96 1014.18 1014.46 1014.79 1015.12 1015.43 1015.69 1015.87 1015.98 1016.07 1016.15
1012.18 1012.51 1012.92 1013.35 1013.72 1013.97 1014.06 1013.98 1013.77 1013.47 1013.19 1012.97 1012.88 1012.90 1013.03 1013.19 1013.34 1013.43 1013.43 1013.37 1013.27 1013.19 1013.16 1013.20 1013.32 1013.49 1013.67 1013.82 1013.94 1014.03 1014.10 1014.19 1014.34 1014.57 1014.87 1015.22 1015.57 1015.90 1016.15 1016.33 1016.43 1016.50 1016.56
1012.08 1012.50 1013.00 1013.51 1013.96 1014.28 1014.41 1014.36 1014.17 1013.90 1013.64 1013.45 1013.38 1013.43 1013.56 1013.73 1013.86 1013.93 1013.91 1013.82 1013.71 1013.62 1013.59 1013.65 1013.77 1013.93 1014.10 1014.23 1014.32 1014.37 1014.42 1014.51 1014.66 1014.91 1015.24 1015.62 1016.00 1016.35 1016.61 1016.79 1016.90 1016.97 1017.03
1011.86 1012.34 1012.92 1013.52 1014.06 1014.46 1014.67 1014.69 1014.56 1014.34 1014.12 1013.97 1013.92 1013.97 1014.09 1014.23 1014.33 1014.36 1014.31 1014.21 1014.09 1014.02 1014.00 1014.07 1014.19 1014.35 1014.49 1014.59 1014.64 1014.65 1014.68 1014.75 1014.92 1015.19 1015.55 1015.96 1016.38 1016.75 1017.03 1017.23 1017.35 1017.42 1017.50
1011.61 1012.11 1012.74 1013.41 1014.04 1014.53 1014.84 1014.95 1014.90 1014.76 1014.60 1014.48 1014.45 1014.49 1014.59 1014.68 1014.74 1014.74 1014.67 1014.57 1014.47 1014.41 1014.42 1014.50 1014.62 1014.76 1014.86 1014.91 1014.90 1014.88 1014.87 1014.93 1015.10 1015.40 1015.79 1016.24 1016.68 1017.08 1017.38 1017.59 1017.72 1017.82 1017.92
1011.40 1011.91 1012.56 1013.28 1013.97 1014.54 1014.93 1015.14 1015.18 1015.11 1015.01 1014.93 1014.91 1014.95 1015.02 1015.08 1015.11 1015.09 1015.01 1014.92 1014.85 1014.82 1014.86 1014.95 1015.06 1015.17 1015.22 1015.21 1015.14 1015.06 1015.02 1015.07 1015.24 1015.56 1015.98 1016.46 1016.93 1017.34 1017.65 1017.87 1018.00 1018.11 1018.23
1011.34 1011.83 1012.48 1013.21 1013.92 1014.53 1014.98 1015.24 1015.35 1015.35 1015.31 1015.27 1015.27 1015.30 1015.36 1015.42 1015.43 1015.40 1015.34 1015.28 1015.24 1015.24 1015.30 1015.40 1015.50 1015.56 1015.56 1015.48 1015.35 1015.22 1015.15 1015.19 1015.37 1015.70 1016.15 1016.65 1017.13 1017.55 1017.86 1018.06 1018.19 1018.29 1018.41
1011.50 1011.95 1012.56 1013.25 1013.94 1014.54 1014.99 1015.28 1015.43 1015.47 1015.46 1015.46 1015.48 1015.54 1015.60 1015.66 1015.69 1015.68 1015.64 1015.61 1015.61 1015.64 1015.72 1015.81 1015.89 1015.91 1015.85 1015.71 1015.53 1015.36 1015.27 1015.31 1015.50 1015.86 1016.33 1016.84 1017.33 1017.74 1018.03 1018.21 1018.30 1018.37 1018.47
1011.89 1012.29 1012.82 1013.45 1014.06 1014.60 1015.00 1015.27 1015.41 1015.46 1015.48 1015.51 1015.56 1015.64 1015.73 1015.81 1015.87 1015.89 1015.89 1015.89 1015.91 1015.96 1016.05 1016.13 1016.18 1016.16 1016.06 1015.88 1015.67 1015.49 1015.39 1015.44 1015.66 1016.04 1016.53 1017.06 1017.55 1017.94 1018.21 1018.35 1018.40 1018.43 1018.49
1012.46 1012.80 1013.25 1013.77 1014.28 1014.71 1015.02 1015.22 1015.32 1015.36 1015.39 1015.44 1015.52 1015.64 1015.76 1015.88 1015.96 1016.01 1016.04 1016.07 1016.10 1016.17 1016.24 1016.31 1016.33 1016.29 1016.16 1015.97 1015.76 1015.58 1015.51 1015.58 1015.83 1016.24 1016.75 1017.29 1017.78 1018.17 1018.41 1018.52 1018.53 1018.51 1018.52
1013.12 1013.40 1013.77 1014.17 1014.55 1014.85 1015.06 1015.16 1015.20 1015.21 1015.23 1015.29 1015.40 1015.55 1015.71 1015.86 1015.98 1016.05 1016.10 1016.13 1016.17 1016.22 1016.28 1016.33 1016.34 1016.28 1016.15 1015.97 1015.78 1015.63 1015.59 1015.70 1015.98 1016.41 1016.94 1017.50 1018.00 1018.38 1018.63 1018.72 1018.72 1018.67 1018.63
1013.75 1014.00 1014.29 1014.59 1014.84 1015.01 1015.10 1015.11 1015.09 1015.06 1015.07 1015.13 1015.26 1015.44 1015.62 1015.79 1015.93 1016.02 1016.07 1016.10 1016.12 1016.16 1016.20 1016.22 1016.22 1016.16 1016.05 1015.90 1015.74 1015.64 1015.63 1015.78 1016.08 1016.53 1017.06 1017.63 1018.14 1018.54 1018.80 1018.92 1018.92 1018.87 1018.82
1014.27 1014.50 1014.73 1014.93 1015.08 1015.16 1015.15 1015.09 1015.01 1014.95 1014.94 1015.01 1015.15 1015.33 1015.53 1015.71 1015.85 1015.94 1015.98 1016.00 1016.00 1016.02 1016.03 1016.05 1016.04 1015.99 1015.90 1015.78 1015.67 1015.60 1015.63 1015.78 1016.09 1016.52 1017.05 1017.61 1018.13 1018.56 1018.86 1019.03 1019.09 1019.08 1019.05
1014.60 1014.82 1015.01 1015.17 1015.25 1015.26 1015.20 1015.10 1014.99 1014.91 1014.90 1014.96 1015.09 1015.27 1015.46 1015.63 1015.77 1015.84 1015.88 1015.88 1015.87 1015.86 1015.86 1015.87 1015.86 1015.83 1015.77 1015.68 1015.60 1015.55 1015.58 1015.72 1015.99 1016.39 1016.87 1017.40 1017.92 1018.37 1018.73 1018.97 1019.11 1019.18 1019.22
1014.73 1014.94 1015.13 1015.26 1015.32 1015.32 1015.25 1015.15 1015.04 1014.96 1014.94 1014.99 1015.11 1015.26 1015.43 1015.58 1015.70 1015.76 1015.79 1015.78 1015.77 1015.76 1015.76 1015.76 1015.76 1015.75 1015.70 1015.63 1015.56 1015.51 1015.52 1015.61 1015.81 1016.13 1016.53 1017.00 1017.48 1017.94 1018.34 1018.66 1018.90 1019.08 1019.20
1014.67 1014.90 1015.09 1015.23 1015.31 1015.32 1015.29 1015.22 1015.14 1015.08 1015.07 1015.10 1015.18 1015.30 1015.43 1015.55 1015.64 1015.70 1015.73 1015.73 1015.73 1015.73 1015.74 1015.76 1015.77 1015.76 1015.73 1015.67 1015.59 1015.52 1015.48 1015.50 1015.60 1015.80 1016.10 1016.46 1016.88 1017.30 1017.72 1018.10 1018.42 1018.70 1018.92
1014.51 1014.74 1014.94 1015.10 1015.23 1015.30 1015.33 1015.32 1015.29 1015.25 1015.23 1015.24 1015.28 1015.34 1015.42 1015.50 1015.58 1015.63 1015.68 1015.71 1015.74 1015.77 1015.80 1015.84 1015.86 1015.87 1015.84 1015.78 1015.69 1015.59 1015.50 1015.44 1015.43 1015.50 1015.66 1015.89 1016.19 1016.55 1016.93 1017.32 1017.69 1018.04 1018.35
1014.31 1014.54 1014.75 1014.94 1015.12 1015.26 1015.36 1015.42 1015.44 1015.44 1015.41 1015.38 1015.36 1015.36 1015.38 1015.42 1015.48 1015.54 1015.61 1015.68 1015.75 1015.82 1015.89 1015.95 1015.99 1016.01 1015.99 1015.94 1015.84 1015.73 1015.59 1015.47 1015.37 1015.31 1015.32 1015.41 1015.57 1015.80 1016.09 1016.43 1016.80 1017.18 1017.53
1014.14 1014.35 1014.57 1014.79 1015.01 1015.21 1015.39 1015.52 1015.59 1015.60 1015.57 1015.50 1015.41 1015.34 1015.30 1015.29 1015.33 1015.39 1015.49 1015.61 1015.73 1015.84 1015.94 1016.03 1016.09 1016.12 1016.11 1016.08 1016.00 1015.90 1015.76 1015.61 1015.45 1015.30 1015.18 1015.12 1015.12 1015.19 1015.35 1015.58 1015.88 1016.22 1016.58
1014.02 1014.22 1014.43 1014.66 1014.92 1015.18 1015.41 1015.60 1015.71 1015.74 1015.69 1015.57 1015.42 1015.28 1015.17 1015.12 1015.13 1015.20 1015.32 1015.47 1015.63 1015.77 1015.90 1016.00 1016.07 1016.12 1016.14 1016.14 1016.12 1016.06 1015.97 1015.84 1015.68 1015.49 1015.28 1015.08 1014.93 1014.83 1014.82 1014.90 1015.07 1015.33 1015.64
1013.96 1014.15 1014.35 1014.59 1014.86 1015.15 1015.43 1015.66 1015.80 1015.83 1015.76 1015.61 1015.40 1015.20 1015.03 1014.92 1014.91 1014.97 1015.10 1015.27 1015.44 1015.61 1015.74 1015.84 1015.92 1015.98 1016.03 1016.08 1016.13 1016.17 1016.17 1016.13 1016.01 1015.83 1015.58 1015.30 1015.01 1014.75 1014.57 1014.48 1014.50 1014.63 1014.86
1013.95 1014.13 1014.31 1014.54 1014.82 1015.13 1015.43 1015.68 1015.85 1015.89 1015.81 1015.63 1015.38 1015.13 1014.91 1014.76 1014.72 1014.76 1014.88 1015.04 1015.21 1015.36 1015.48 1015.56 1015.62 1015.69 1015.77 1015.89 1016.03 1016.18 1016.30 1016.37 1016.36 1016.24 1016.01 1015.69 1015.31 1014.93 1014.60 1014.35 1014.22 1014.23 1014.37
1013.95 1014.12 1014.30 1014.51 1014.78 1015.09 1015.40 1015.67 1015.86 1015.91 1015.84 1015.65 1015.39 1015.11 1014.86 1014.69 1014.61 1014.63 1014.72 1014.85 1014.98 1015.09 1015.17 1015.21 1015.25 1015.31 1015.41 1015.57 1015.80 1016.05 1016.31 1016.52 1016.63 1016.60 1016.43 1016.12 1015.72 1015.27 1014.84 1014.47 1014.23 1014.14 1014.20
1013.95 1014.12 1014.28 1014.48 1014.73 1015.03 1015.34 1015.62 1015.83 1015.91 1015.86 1015.69 1015.45 1015.17 1014.91 1014.72 1014.62 1014.60 1014.66 1014.74 1014.83 1014.88 1014.90 1014.89 1014.88 1014.91 1015.01 1015.20 1015.48 1015.82 1016.18 1016.51 1016.73 1016.81 1016.72 1016.47 1016.09 1015.64 1015.17 1014.76 1014.47 1014.33 1014.35
1013.91 1014.09 1014.24 1014.42 1014.65 1014.93 1015.24 1015.53 1015.75 1015.87 1015.87 1015.75 1015.54 1015.29 1015.05 1014.87 1014.75 1014.71 1014.72 1014.76 1014.78 1014.77 1014.73 1014.65 1014.59 1014.58 1014.66 1014.84 1015.14 1015.52 1015.94 1016.34 1016.64 1016.81 1016.80 1016.63 1016.32 1015.92 1015.50 1015.12 1014.85 1014.73 1014.75
Thickness
5783 5779 5776 5775 5774 5773 5772 5771 5770 5769 5768 5768 5768 5768 5767 5766 5765 5765 5765 5765 5764 5764 5763 5763 5762 5761 5760 5759 5758 5758 5757 5757 5756 5755 5753 5752 5751 5750 5749 5747 5747 5744 5743
5786 5780 5776 5775 5773 5772 5770 5769 5769 5768 5767 5766 5766 5765 5765 5764 5764 5763 5763 5763 5763 5762 5761 5761 5760 5759 5758 5757 5757 5756 5756 5755 5755 5754 5752 5750 5749 5748 5748 5747 5746 5743 5742
5788 5781 5776 5774 5773 5771 5769 5768 5767 5766 5765 5764 5763 5763 5763 5762 5762 5762 5761 5761 5761 5761 5760 5759 5758 5757 5756 5756 5755 5755 5755 5754 5754 5753 5752 5750 5748 5746 5746 5745 5744 5742 5741
5789 5782 5776 5773 5772 5770 5769 5767 5766 5765 5764 5763 5762 5761 5761 5761 5761 5760 5760 5759 5759 5759 5758 5758 5757 5756 5756 5755 5755 5754 5754 5754 5754 5753 5753 5751 5748 5745 5744 5743 5742 5741 5740
5788 5781 5775 5773 5771 5769 5768 5766 5765 5764 5763 5762 5761 5760 5760 5759 5759 5759 5759 5758 5758 5757 5757 5756 5756 5755 5754 5754 5754 5754 5754 5754 5754 5754 5753 5750 5747 5745 5744 5743 5741 5740 5739
5788 5781 5775 5772 5770 5768 5767 5766 5764 5763 5762 5761 5760 5760 5759 5759 5758 5758 5757 5757 5756 5756 5755 5755 5754 5754 5754 5753 5754 5754 5754 5755 5755 5755 5753 5750 5747 5745 5743 5742 5741 5739 5738
5790 5782 5775 5772 5770 5768 5766 5765 5763 5762 5761 5760 5759 5759 5758 5758 5757 5757 5756 5756 5755 5755 5754 5753 5753 5753 5753 5753 5754 5754 5755 5755 5756 5755 5753 5749 5746 5744 5743 5741 5740 5739 5737
5792 5783 5776 5772 5770 5768 5766 5765 5763 5762 5760 5760 5759 5758 5757 5756 5756 5755 5755 5755 5755 5754 5754 5753 5753 5752 5753 5753 5754 5754 5755 5756 5757 5756 5753 5749 5746 5744 5743 5741 5740 5739 5737
5795 5787 5779 5774 5771 5768 5766 5765 5763 5762 5761 5760 5759 5758 5757 5756 5755 5755 5754 5754 5754 5754 5753 5753 5753 5753 5753 5753 5754 5755 5756 5756 5756 5756 5753 5749 5746 5745 5743 5741 5740 5739 5738
5797 5791 5785 5780 5774 5771 5768 5765 5764 5763 5762 5761 5760 5759 5758 5756 5756 5755 5754 5754 5754 5754 5753 5753 5753 5753 5753 5754 5755 5755 5756 5757 5757 5757 5753 5749 5747 5745 5743 5742 5740 5739 5738
5795 5793 5790 5784 5779 5776 5772 5768 5766 5764 5763 5762 5761 5760 5759 5759 5758 5757 5756 5754 5754 5754 5754 5754 5753 5753 5754 5755 5756 5756 5757 5758 5759 5758 5754 5751 5748 5746 5744 5742 5740 5739 5738
5790 5792 5791 5787 5783 5780 5777 5772 5770 5768 5766 5765 5764 5763 5762 5762 5761 5760 5757 5755 5755 5755 5755 5755 5754 5753 5754 5756 5757 5757 5758 5760 5760 5758 5754 5751 5749 5747 5745 5743 5741 5740 5738
5792 5792 5790 5786 5784 5782 5779 5776 5774 5772 5769 5769 5767 5766 5764 5763 5763 5761 5758 5756 5756 5756 5756 5756 5755 5755 5757 5759 5760 5760 5761 5763 5762 5760 5754 5752 5751 5748 5746 5744 5742 5740 5739
5793 5792 5791 5787 5784 5782 5780 5778 5776 5774 5772 5771 5769 5768 5767 5765 5764 5763 5761 5759 5759 5759 5759 5759 5759 5759 5760 5761 5762 5763 5763 5763 5763 5759 5755 5754 5752 5750 5748 5745 5743 5741 5740
5793 5792 5790 5787 5783 5781 5779 5778 5777 5775 5774 5772 5770 5769 5767 5766 5764 5764 5762 5761 5761 5761 5761 5761 5761 5762 5763 5763 5763 5764 5763 5763 5763 5760 5757 5754 5753 5751 5749 5747 5745 5743 5741
5796 5794 5792 5788 5784 5781 5779 5777 5776 5775 5774 5773 5771 5769 5768 5766 5764 5764 5763 5762 5763 5762 5762 5762 5763 5763 5763 5764 5764 5764 5764 5764 5763 5762 5758 5756 5754 5752 5751 5749 5747 5745 5743
5799 5797 5793 5790 5787 5782 5780 5778 5778 5777 5775 5773 5771 5769 5767 5766 5764 5764 5763 5763 5764 5764 5763 5763 5763 5763 5764 5764 5764 5765 5765 5765 5764 5763 5761 5758 5756 5754 5753 5751 5749 5747 5745
5803 5798 5796 5796 5790 5785 5782 5780 5779 5778 5776 5773 5771 5770 5768 5766 5765 5764 5764 5764 5764 5764 5764 5763 5763 5762 5762 5762 5763 5765 5766 5766 5766 5765 5763 5762 5760 5758 5755 5753 5751 5750 5748
5806 5801 5797 5796 5791 5787 5784 5781 5779 5778 5776 5774 5772 5770 5768 5767 5766 5765 5765 5765 5764 5764 5764 5764 5763 5761 5759 5759 5762 5764 5766 5767 5767 5767 5766 5765 5763 5762 5760 5757 5754 5752 5749
5809 5804 5799 5796 5792 5789 5786 5782 5780 5778 5776 5775 5773 5771 5769 5768 5767 5766 5766 5765 5765 5763 5762 5762 5760 5761 5759 5759 5761 5763 5764 5766 5767 5768 5767 5767 5766 5765 5762 5760 5755 5752 5750
5810 5805 5801 5796 5793 5790 5785 5781 5777 5775 5775 5774 5773 5771 5770 5768 5767 5766 5765 5764 5764 5762 5761 5761 5760 5759 5758 5760 5756 5755 5760 5765 5766 5767 5768 5768 5767 5766 5764 5761 5757 5755 5751
5810 5807 5803 5799 5795 5791 5787 5784 5781 5779 5777 5776 5774 5772 5770 5768 5767 5767 5765 5764 5763 5762 5760 5760 5759 5758 5758 5759 5754 5749 5747 5752 5760 5765 5765 5764 5764 5765 5763 5761 5757 5755 5752
5814 5810 5808 5802 5798 5794 5790 5786 5783 5779 5776 5774 5772 5771 5771 5769 5768 5767 5766 5765 5764 5762 5760 5760 5760 5757 5755 5757 5757 5750 5743 5741 5749 5756 5759 5760 5761 5761 5760 5759 5756 5753 5751
5819 5816 5811 5806 5801 5796 5792 5787 5781 5776 5772 5772 5772 5772 5772 5770 5769 5768 5767 5765 5764 5763 5761 5761 5761 5759 5757 5754 5755 5756 5754 5752 5744 5743 5750 5755 5756 5755 5755 5755 5752 5750 5748
5825 5820 5814 5808 5802 5798 5794 5790 5784 5780 5777 5777 5775 5773 5771 5771 5770 5769 5767 5766 5764 5763 5762 5761 5760 5759 5757 5755 5753 5753 5752 5751 5749 5742 5738 5743 5747 5750 5750 5748 5747 5747 5745
5828 5823 5816 5808 5803 5800 5795 5791 5786 5781 5778 5775 5773 5771 5771 5771 5770 5769 5768 5766 5764 5763 5761 5761 5760 5758 5757 5756 5754 5753 5750 5747 5745 5743 5738 5737 5737 5741 5744 5744 5743 5741 5740